Home   Weather   Manchester   Past weeks

Flag for United Kingdom Past Weather in Manchester, England, United Kingdom — Yesterday and Last 2 Weeks

Now
45 °F

Scattered clouds.


Feels Like: 36 °F
Forecast: 34 / 48 °F
Wind: 24 mph from Northwest

Location: Manchester Airport

Current Time: Apr 24, 2017 at 8:11:24 pm

Latest Report: Apr 24, 2017 at 7:20 pm


Visibility: N/A

Pressure: 29.92 "Hg

Humidity: 39%

Dew Point: 21 °F

Location of ManchesterLocation

Past Weather in Manchester — Graph

°F

Manchester Temperature Yesterday

Maximum temperature yesterday: 55 °F (at 3:50 pm)
Minimum temperature yesterday: 37 °F (at 5:50 am)
Average temperature yesterday: 47 °F

High & Low Weather Summary for the Past Weeks

 TemperatureHumidityPressure
High55 °F (Apr 9, 6:20 pm)100% (Apr 14, 9:50 am)30.63 "Hg (Apr 14, 9:50 am)
Low36 °F (Apr 18, 3:50 am)37% (Apr 24, 6:20 pm)29.89 "Hg (Apr 14, 5:20 pm)
Average48 °F74%30.25 "Hg
* Reported Apr 9 6:20 pm — Apr 24 6:50 pm, Manchester, Weather by CustomWeather, © 2017

Note: Actual official high and low records may vary slightly from our data, if they occured in-between our weather recording intervals... More about our weather records

Advertising

Manchester Weather History for the Previous 24 Hours

Scroll right to see more
 ConditionsComfort  
Time TempWeatherWind HumidityBarometerVisibility
6:50 pm
Mon, Apr 24
45 °FQuite cool.21 mph42%29.92 "HgN/A
6:20 pm46 °FCool.23 mph37%29.92 "HgN/A
5:50 pm48 °FCool.23 mph40%29.95 "HgN/A
5:20 pm48 °FCool.20 mph43%29.95 "HgN/A
4:50 pm48 °FPassing clouds.20 mph46%29.95 "HgN/A
4:20 pm48 °FCool.20 mph50%29.95 "HgN/A
3:50 pm50 °FPassing clouds.22 mph43%29.95 "HgN/A
3:20 pm52 °FScattered clouds.17 mph50%29.95 "HgN/A
2:50 pm50 °FScattered clouds.17 mph50%29.95 "HgN/A
2:20 pm52 °FScattered clouds.20 mph47%29.95 "HgN/A
1:50 pm52 °FPartly sunny.17 mph50%29.95 "HgN/A
1:20 pm52 °FPartly sunny.17 mph54%29.95 "HgN/A
12:50 pm50 °FPartly sunny.15 mph62%29.95 "HgN/A
12:20 pm50 °FBroken clouds.13 mph71%29.98 "HgN/A
11:50 am48 °FLight rain. Broken clouds.12 mph82%29.98 "HgN/A
11:20 am48 °FRain showers. Partly sunny.14 mph82%29.98 "HgN/A
10:50 am50 °FScattered showers. Broken clouds.15 mph76%29.98 "HgN/A
10:20 am50 °FBroken clouds.14 mph76%29.98 "HgN/A
9:50 am50 °FBroken clouds.13 mph82%29.98 "HgN/A
9:20 am50 °FRain showers. Broken clouds.13 mph76%29.98 "HgN/A
8:50 am50 °FBroken clouds.16 mph76%29.98 "HgN/A
8:20 am50 °FBroken clouds.13 mph76%30.01 "HgN/A
7:50 am50 °FBroken clouds.13 mph76%30.01 "HgN/A
7:20 am50 °FBroken clouds.12 mph82%30.01 "HgN/A
6:50 am50 °FMostly cloudy.10 mph82%30.01 "HgN/A
6:20 am50 °FMostly cloudy.9 mph82%30.01 "HgN/A
5:50 am50 °FOvercast.8 mph82%30.01 "HgN/A
5:20 am48 °FPassing clouds.7 mph94%30.01 "HgN/A
4:50 am46 °FLight rain. Passing clouds.7 mph100%30.04 "HgN/A
4:20 am46 °FPassing clouds.8 mph100%30.04 "HgN/A
3:50 am46 °FPassing clouds.8 mph100%30.04 "HgN/A
3:20 am48 °FSprinkles. Partly cloudy.8 mph94%30.07 "HgN/A
2:50 am48 °FMostly cloudy.9 mph94%30.07 "HgN/A
2:20 am48 °FClear.10 mph94%30.09 "HgN/A
1:50 am48 °FMostly cloudy.9 mph94%30.09 "HgN/A
1:20 am48 °FSprinkles. Partly cloudy.12 mph94%30.09 "Hg4 mi
12:50 am48 °FLight rain. Mostly cloudy.8 mph94%30.12 "HgN/A
12:20 am48 °FDrizzle. Overcast.8 mph87%30.12 "Hg3 mi
11:50 pm
Sun, Apr 23
48 °FLight rain. Overcast.7 mph82%30.12 "HgN/A
11:20 pm48 °FMostly cloudy.3 mph76%30.15 "HgN/A
10:50 pm46 °FOvercast.3 mph82%30.15 "HgN/A
10:20 pm46 °FPassing clouds.2 mph82%30.15 "HgN/A
9:50 pm48 °FPassing clouds.2 mph71%30.15 "HgN/A
9:20 pm46 °FCool.3 mph76%30.18 "HgN/A
8:50 pm48 °FCool.5 mph71%30.18 "HgN/A
8:20 pm50 °FCool.5 mph67%30.18 "HgN/A
Weather by CustomWeather, © 2017

See weather overviewHow to use our weather pages